GAF564 EDDF-OEJN

Flight info

Callsign GAF564
Flight time N/A
Altitude 39000
Route CINDY8S CINDY Z74 LAMPU DCT NOMBO Y161 MAH DCT VAVOR DCT RADIZ DCT GORPA DCT PETAK DCT DIMIS UL604 SALUN N705 MMA L613 KIVIL N710 TAKRI P751 LXR M999 MUVOL
Aircraft A359/H-SDE2E3GHIJ3J4J5LM1ORWXY/LB1D1

Departure

Time N/A
Airport Frankfurt Main Airport (EDDF)

Arrival

Time 2026-04-30 20:02
Airport King Abdulaziz International Airport (OEJN)
Time Latitude Longitude Altitude Speed Heading
2026-04-30 19:31 22.97785 37.21305 38924 ft 536 kts 131°
2026-04-30 19:31 22.93463 37.27889 38921 ft 535 kts 131°
2026-04-30 19:32 22.89146 37.34460 38920 ft 535 kts 131°
2026-04-30 19:32 22.84825 37.41032 38935 ft 535 kts 131°
2026-04-30 19:33 22.80526 37.47567 38921 ft 535 kts 131°
2026-04-30 19:33 22.76205 37.54127 38916 ft 534 kts 131°
2026-04-30 19:34 22.71889 37.60681 38916 ft 534 kts 131°
2026-04-30 19:34 22.67577 37.67242 38529 ft 535 kts 131°
2026-04-30 19:35 22.65425 37.70525 38272 ft 536 kts 131°
2026-04-30 19:35 22.63263 37.73821 37984 ft 536 kts 131°
2026-04-30 19:35 22.61106 37.77109 37607 ft 535 kts 131°
2026-04-30 19:35 22.58948 37.80397 36735 ft 538 kts 131°
2026-04-30 19:36 22.56767 37.83715 35920 ft 540 kts 131°
2026-04-30 19:36 22.54590 37.87026 35177 ft 541 kts 132°
2026-04-30 19:36 22.50204 37.93689 33496 ft 547 kts 131°
2026-04-30 19:37 22.47990 37.97047 32568 ft 549 kts 131°
2026-04-30 19:37 22.45763 38.00425 31676 ft 551 kts 130°
2026-04-30 19:37 22.43537 38.03800 30763 ft 553 kts 129°
2026-04-30 19:37 22.41302 38.07186 29768 ft 555 kts 128°
2026-04-30 19:38 22.39062 38.10581 28940 ft 552 kts 128°
2026-04-30 19:38 22.36843 38.13944 28218 ft 546 kts 128°
2026-04-30 19:38 22.34675 38.17227 27521 ft 541 kts 128°
2026-04-30 19:38 22.32499 38.20517 26817 ft 536 kts 128°
2026-04-30 19:39 22.30341 38.23779 26137 ft 531 kts 127°
2026-04-30 19:39 22.28204 38.27011 25453 ft 527 kts 127°
2026-04-30 19:39 22.26080 38.30216 24766 ft 522 kts 127°
2026-04-30 19:39 22.23971 38.33393 24090 ft 518 kts 127°
2026-04-30 19:40 22.21877 38.36547 23399 ft 514 kts 127°
2026-04-30 19:40 22.19798 38.39662 22667 ft 508 kts 128°
2026-04-30 19:40 22.17677 38.42632 22390 ft 492 kts 129°
2026-04-30 19:40 22.15592 38.45496 22135 ft 477 kts 130°
2026-04-30 19:41 22.13579 38.48269 21896 ft 463 kts 129°
2026-04-30 19:41 22.12279 38.50064 21785 ft 452 kts 129°
2026-04-30 19:41 22.10381 38.52692 21678 ft 436 kts 129°
2026-04-30 19:41 22.07964 38.56043 21520 ft 417 kts 130°
2026-04-30 19:42 22.06774 38.57693 21465 ft 407 kts 130°
2026-04-30 19:42 22.05064 38.60066 21293 ft 395 kts 130°
2026-04-30 19:42 22.03396 38.62379 21019 ft 387 kts 130°
2026-04-30 19:42 22.01757 38.64663 20587 ft 380 kts 130°
2026-04-30 19:43 22.00177 38.66875 20056 ft 374 kts 130°
2026-04-30 19:43 21.98613 38.69065 19573 ft 365 kts 130°
2026-04-30 19:43 21.97070 38.71222 19207 ft 361 kts 130°
2026-04-30 19:44 21.94028 38.75471 18470 ft 356 kts 130°
2026-04-30 19:44 21.92522 38.77574 18109 ft 353 kts 130°
2026-04-30 19:44 21.91029 38.79657 17743 ft 349 kts 130°
2026-04-30 19:44 21.89553 38.81717 17375 ft 346 kts 130°
2026-04-30 19:45 21.88082 38.83768 17022 ft 343 kts 130°
2026-04-30 19:45 21.86631 38.85791 16691 ft 340 kts 130°
2026-04-30 19:45 21.85191 38.87799 16347 ft 337 kts 130°
2026-04-30 19:45 21.83780 38.89767 16206 ft 326 kts 131°
2026-04-30 19:46 21.82444 38.91632 16096 ft 309 kts 131°
2026-04-30 19:46 21.81178 38.93401 15973 ft 289 kts 131°
2026-04-30 19:46 21.79962 38.95094 15793 ft 283 kts 131°
2026-04-30 19:46 21.78753 38.96769 15515 ft 283 kts 131°
2026-04-30 19:47 21.77382 38.98232 15232 ft 273 kts 152°
2026-04-30 19:47 21.76261 38.98863 15090 ft 267 kts 162°
2026-04-30 19:47 21.73986 38.99800 14751 ft 263 kts 165°
2026-04-30 19:47 21.72270 39.00471 14482 ft 262 kts 165°
2026-04-30 19:48 21.70582 39.01137 14334 ft 256 kts 165°
2026-04-30 19:48 21.68920 39.01797 14124 ft 252 kts 165°
2026-04-30 19:48 21.67279 39.02450 13886 ft 251 kts 165°
2026-04-30 19:48 21.65644 39.03100 13616 ft 250 kts 165°
2026-04-30 19:49 21.64017 39.03737 13349 ft 248 kts 165°
2026-04-30 19:49 21.60829 39.04981 12854 ft 243 kts 165°
2026-04-30 19:49 21.59241 39.05603 12606 ft 241 kts 164°
2026-04-30 19:50 21.57674 39.06216 12366 ft 240 kts 164°
2026-04-30 19:50 21.56106 39.06829 12118 ft 239 kts 164°
2026-04-30 19:50 21.54544 39.07441 11865 ft 239 kts 164°
2026-04-30 19:50 21.52986 39.08051 11632 ft 238 kts 163°
2026-04-30 19:51 21.51435 39.08660 11383 ft 237 kts 163°
2026-04-30 19:51 21.49886 39.09274 11133 ft 237 kts 163°
2026-04-30 19:51 21.48341 39.09885 10885 ft 236 kts 163°
2026-04-30 19:51 21.46800 39.10493 10652 ft 236 kts 163°
2026-04-30 19:52 21.45260 39.11102 10414 ft 235 kts 163°
2026-04-30 19:52 21.43747 39.11698 10176 ft 235 kts 162°
2026-04-30 19:52 21.42194 39.12312 10000 ft 246 kts 162°
2026-04-30 19:52 21.40556 39.12961 9847 ft 252 kts 163°
2026-04-30 19:53 21.38906 39.13613 9447 ft 254 kts 162°
2026-04-30 19:53 21.37241 39.14272 9041 ft 256 kts 162°
2026-04-30 19:53 21.35613 39.15045 8666 ft 259 kts 150°
2026-04-30 19:53 21.34413 39.16472 8285 ft 262 kts 115°
2026-04-30 19:54 21.34152 39.18380 7944 ft 261 kts 80°
2026-04-30 19:54 21.34656 39.20237 7601 ft 260 kts 68°
2026-04-30 19:54 21.35312 39.22050 7277 ft 259 kts 68°
2026-04-30 19:54 21.36110 39.23769 6958 ft 256 kts 52°
2026-04-30 19:55 21.37501 39.24887 6600 ft 250 kts 15°
2026-04-30 19:55 21.39188 39.24959 6228 ft 242 kts 342°
2026-04-30 19:55 21.40754 39.24417 5807 ft 237 kts 336°
2026-04-30 19:55 21.42284 39.23789 5318 ft 234 kts 336°
2026-04-30 19:56 21.43808 39.23161 4771 ft 234 kts 337°
2026-04-30 19:56 21.45337 39.22541 4300 ft 235 kts 337°
2026-04-30 19:56 21.46874 39.21933 3950 ft 235 kts 338°
2026-04-30 19:56 21.48374 39.21350 3671 ft 222 kts 338°
2026-04-30 19:57 21.49776 39.20797 3446 ft 206 kts 338°
2026-04-30 19:57 21.51062 39.20287 3251 ft 190 kts 338°
2026-04-30 19:57 21.52275 39.19807 3001 ft 184 kts 338°
2026-04-30 19:57 21.53457 39.19339 2745 ft 177 kts 339°
2026-04-30 19:58 21.54570 39.18899 2523 ft 163 kts 340°
2026-04-30 19:58 21.55587 39.18498 2324 ft 149 kts 340°
2026-04-30 19:58 21.56528 39.18125 2135 ft 140 kts 340°
2026-04-30 19:58 21.57414 39.17774 1967 ft 131 kts 340°
2026-04-30 19:59 21.58257 39.17441 1797 ft 128 kts 342°
2026-04-30 19:59 21.59097 39.17109 1635 ft 129 kts 342°
2026-04-30 19:59 21.60787 39.16440 1295 ft 129 kts 342°
2026-04-30 20:00 21.61618 39.16110 1117 ft 129 kts 343°
2026-04-30 20:00 21.62470 39.15775 966 ft 128 kts 340°
2026-04-30 20:00 21.63300 39.15445 808 ft 129 kts 340°
2026-04-30 20:00 21.64139 39.15112 653 ft 127 kts 341°
2026-04-30 20:01 21.65796 39.14456 326 ft 128 kts 341°
2026-04-30 20:01 21.66629 39.14121 149 ft 128 kts 340°
2026-04-30 20:01 21.67456 39.13797 42 ft 117 kts 340°
2026-04-30 20:02 21.68333 39.13453 36 ft 29 kts 340°
2026-04-30 20:02 21.68523 39.13415 34 ft 27 kts 359°
2026-04-30 20:03 21.68804 39.13455 34 ft 0 kts
2026-04-30 20:06 21.68824 39.13456 34 ft 6 kts
2026-04-30 20:06 21.68953 39.13426 34 ft 23 kts 339°
2026-04-30 20:06 21.69107 39.13364 33 ft 24 kts 339°
2026-04-30 20:07 21.69268 39.13300 32 ft 16 kts 339°
2026-04-30 20:07 21.69330 39.13284 32 ft 10 kts 358°
2026-04-30 20:07 21.69398 39.13378 32 ft 10 kts 70°
2026-04-30 20:08 21.69430 39.13448 32 ft 11 kts 46°
2026-04-30 20:08 21.69492 39.13452 31 ft 10 kts 347°
2026-04-30 20:08 21.69560 39.13426 31 ft 11 kts 339°
2026-04-30 20:08 21.69614 39.13404 31 ft 2 kts 339°
2026-04-30 20:09 21.69642 39.13393 31 ft 6 kts 339°
2026-04-30 20:09 21.69693 39.13372 31 ft 9 kts 339°
2026-04-30 20:09 21.69782 39.13336 30 ft 0 kts 340°
2026-04-30 20:10 21.69805 39.13328 30 ft 16 kts 341°
2026-04-30 20:10 21.69930 39.13280 30 ft 20 kts 338°
2026-04-30 20:11 21.70036 39.13236 29 ft 7 kts 339°
2026-04-30 20:11 21.70066 39.13224 29 ft 0 kts 340°
2026-04-30 20:12 21.70105 39.13170 29 ft 13 kts 245°
2026-04-30 20:12 21.70079 39.13102 29 ft 0 kts 249°